When you browse on this site, cookies collect data to enhance your experience and personalize the content and advertising you see.
Visit our Privacy Policy to learn more. By continuing to use the site, you agree to this use of cookies and data.
  • în România
  • Lista ţărilor
  • Pe 7 zile
  • Temperatura apei
  • Hartă satelitară
  • Meteo pe hartă
  • Widget-uri
  • user-avatar
    Intrare

    Meteo pe oră la Clivlend

    Astăzi, 22 Mai, Miercuri

    Timp Temperatura Precipitaţii Vânt Presiune Umiditate
    00:00 +10°C° 0 mm 5 m/s 749 mmHg 63%
    01:00 +12°C° 0 mm 5 m/s 748 mmHg 59%
    02:00 +12°C° 0 mm 5 m/s 748 mmHg 59%
    03:00 +12°C° 0 mm 5 m/s 748 mmHg 59%
    04:00 +12°C° 0 mm 5 m/s 748 mmHg 59%
    05:00 +12°C° 0 mm 5 m/s 748 mmHg 59%
    06:00 +13°C° 0 mm 6 m/s 748 mmHg 60%
    07:00 +13°C° 0 mm 6 m/s 748 mmHg 60%
    08:00 +15°C° 0 mm 6 m/s 748 mmHg 60%
    09:00 +17°C° 0 mm 6 m/s 747 mmHg 60%
    10:00 +20°C° 0 mm 6 m/s 747 mmHg 59%
    11:00 +21°C° 0 mm 6 m/s 747 mmHg 62%
    12:00 +22°C° 0 mm 6 m/s 746 mmHg 65%
    13:00 +23°C° 0 mm 6 m/s 746 mmHg 67%
    14:00 +25°C° 0.4 mm 5 m/s 746 mmHg 68%
    15:00 +27°C° 0.4 mm 5 m/s 745 mmHg 69%
    16:00 +28°C° 0.4 mm 4 m/s 745 mmHg 70%
    17:00 +27°C° 1.4 mm 4 m/s 745 mmHg 75%
    18:00 +25°C° 1.4 mm 3 m/s 745 mmHg 80%
    19:00 +24°C° 1.4 mm 3 m/s 745 mmHg 86%
    20:00 +22°C° 0.6 mm 3 m/s 745 mmHg 88%
    21:00 +22°C° 0.6 mm 3 m/s 746 mmHg 90%
    22:00 +21°C° 0.6 mm 3 m/s 746 mmHg 92%
    23:00 +20°C° 0 mm 3 m/s 746 mmHg 93%

    Mâine, 23 Mai, Joi

    Timp Temperatura Precipitaţii Vânt Presiune Umiditate
    00:00 +20°C° 0 mm 3 m/s 746 mmHg 94%
    01:00 +20°C° 0 mm 3 m/s 746 mmHg 95%
    02:00 +19°C° 0 mm 4 m/s 746 mmHg 96%
    03:00 +19°C° 0 mm 4 m/s 745 mmHg 96%
    04:00 +19°C° 0 mm 4 m/s 745 mmHg 97%
    05:00 +20°C° 0.2 mm 4 m/s 745 mmHg 96%
    06:00 +21°C° 0.2 mm 5 m/s 746 mmHg 95%
    07:00 +21°C° 0.2 mm 5 m/s 746 mmHg 94%
    08:00 +22°C° 0.3 mm 5 m/s 745 mmHg 92%
    09:00 +22°C° 0.3 mm 6 m/s 745 mmHg 90%
    10:00 +22°C° 0.3 mm 6 m/s 745 mmHg 88%
    11:00 +24°C° 0.2 mm 7 m/s 745 mmHg 80%
    12:00 +27°C° 0.2 mm 7 m/s 745 mmHg 72%
    13:00 +28°C° 0.2 mm 8 m/s 745 mmHg 64%
    14:00 +28°C° 0.2 mm 7 m/s 744 mmHg 65%
    15:00 +27°C° 0.2 mm 7 m/s 744 mmHg 67%
    16:00 +27°C° 0.2 mm 7 m/s 744 mmHg 69%
    17:00 +26°C° 0.1 mm 6 m/s 744 mmHg 67%
    18:00 +23°C° 0.1 mm 6 m/s 745 mmHg 64%
    19:00 +22°C° 0.1 mm 6 m/s 745 mmHg 62%
    20:00 +21°C° 0 mm 6 m/s 745 mmHg 63%
    21:00 +20°C° 0 mm 5 m/s 746 mmHg 64%
    22:00 +19°C° 0 mm 5 m/s 746 mmHg 65%
    23:00 +17°C° 0 mm 5 m/s 747 mmHg 68%

    Poimâine, 24 Mai, Vineri

    Timp Temperatura Precipitaţii Vânt Presiune Umiditate
    00:00 +16°C° 0 mm 5 m/s 747 mmHg 71%
    01:00 +15°C° 0 mm 4 m/s 747 mmHg 74%
    02:00 +14°C° 0 mm 4 m/s 747 mmHg 78%
    03:00 +13°C° 0 mm 4 m/s 747 mmHg 81%
    04:00 +12°C° 0 mm 3 m/s 748 mmHg 85%
    05:00 +13°C° 0 mm 3 m/s 748 mmHg 83%
    06:00 +13°C° 0 mm 3 m/s 749 mmHg 81%
    07:00 +14°C° 0 mm 3 m/s 749 mmHg 79%
    08:00 +16°C° 0 mm 2 m/s 750 mmHg 73%
    09:00 +17°C° 0 mm 2 m/s 750 mmHg 68%
    10:00 +18°C° 0 mm 2 m/s 750 mmHg 62%
    11:00 +20°C° 0 mm 2 m/s 750 mmHg 58%
    12:00 +21°C° 0 mm 2 m/s 750 mmHg 54%
    13:00 +23°C° 0 mm 2 m/s 749 mmHg 49%
    14:00 +23°C° 0 mm 2 m/s 749 mmHg 51%
    15:00 +23°C° 0 mm 2 m/s 749 mmHg 52%
    16:00 +23°C° 0 mm 2 m/s 748 mmHg 54%
    17:00 +21°C° 0 mm 2 m/s 748 mmHg 59%
    18:00 +21°C° 0 mm 3 m/s 748 mmHg 63%
    19:00 +20°C° 0 mm 3 m/s 748 mmHg 68%
    20:00 +20°C° 0 mm 3 m/s 747 mmHg 71%
    21:00 +19°C° 0 mm 3 m/s 747 mmHg 74%
    22:00 +18°C° 0 mm 4 m/s 747 mmHg 77%
    23:00 +18°C° 0.1 mm 4 m/s 747 mmHg 78%

    25 Mai, Sâmbătă

    Timp Temperatura Precipitaţii Vânt Presiune Umiditate
    00:00 +19°C° 0.1 mm 5 m/s 747 mmHg 78%
    01:00 +19°C° 0.1 mm 5 m/s 746 mmHg 79%
    02:00 +19°C° 0.7 mm 5 m/s 746 mmHg 83%
    03:00 +19°C° 0.7 mm 5 m/s 746 mmHg 87%
    04:00 +19°C° 0.7 mm 5 m/s 745 mmHg 92%
    05:00 +20°C° 0.6 mm 5 m/s 745 mmHg 92%
    06:00 +21°C° 0.6 mm 5 m/s 745 mmHg 93%
    07:00 +22°C° 0.6 mm 5 m/s 745 mmHg 93%
    08:00 +25°C° 0.8 mm 5 m/s 745 mmHg 85%
    09:00 +26°C° 0.8 mm 6 m/s 745 mmHg 77%
    10:00 +28°C° 0.8 mm 6 m/s 744 mmHg 69%
    11:00 +29°C° 0.6 mm 6 m/s 744 mmHg 68%
    12:00 +29°C° 0.6 mm 6 m/s 744 mmHg 66%
    13:00 +29°C° 0.6 mm 7 m/s 744 mmHg 64%
    14:00 +29°C° 0.7 mm 6 m/s 744 mmHg 67%
    15:00 +29°C° 0.7 mm 6 m/s 744 mmHg 70%
    16:00 +28°C° 0.7 mm 5 m/s 743 mmHg 73%
    17:00 +27°C° 2.3 mm 5 m/s 743 mmHg 77%
    18:00 +25°C° 2.3 mm 5 m/s 744 mmHg 82%
    19:00 +23°C° 2.3 mm 5 m/s 744 mmHg 86%
    20:00 +23°C° 0.4 mm 5 m/s 744 mmHg 87%
    21:00 +22°C° 0.4 mm 5 m/s 744 mmHg 87%
    22:00 +22°C° 0.4 mm 5 m/s 744 mmHg 87%
    23:00 +22°C° 0 mm 4 m/s 744 mmHg 89%

    26 Mai, Duminică

    Timp Temperatura Precipitaţii Vânt Presiune Umiditate
    00:00 +21°C° 0 mm 4 m/s 744 mmHg 91%
    01:00 +21°C° 0 mm 4 m/s 744 mmHg 92%
    02:00 +21°C° 0 mm 4 m/s 743 mmHg 93%
    03:00 +21°C° 0 mm 3 m/s 743 mmHg 95%
    04:00 +20°C° 0 mm 3 m/s 743 mmHg 96%
    05:00 +21°C° 0 mm 3 m/s 744 mmHg 94%
    06:00 +21°C° 0 mm 3 m/s 744 mmHg 92%
    07:00 +22°C° 0 mm 3 m/s 744 mmHg 90%
    08:00 +24°C° 0.1 mm 3 m/s 744 mmHg 85%
    09:00 +25°C° 0.1 mm 3 m/s 744 mmHg 81%
    10:00 +26°C° 0.1 mm 3 m/s 744 mmHg 76%
    11:00 +26°C° 0.2 mm 3 m/s 744 mmHg 76%
    12:00 +26°C° 0.2 mm 3 m/s 744 mmHg 76%
    13:00 +27°C° 0.2 mm 3 m/s 744 mmHg 76%
    14:00 +26°C° 1.2 mm 3 m/s 744 mmHg 79%
    15:00 +25°C° 1.2 mm 3 m/s 744 mmHg 83%
    16:00 +24°C° 1.2 mm 3 m/s 744 mmHg 87%
    17:00 +22°C° 0.8 mm 3 m/s 744 mmHg 87%
    18:00 +22°C° 0.8 mm 3 m/s 744 mmHg 87%
    19:00 +21°C° 0.8 mm 3 m/s 744 mmHg 88%
    20:00 +21°C° 0 mm 3 m/s 744 mmHg 90%
    21:00 +20°C° 0 mm 3 m/s 744 mmHg 92%
    22:00 +19°C° 0 mm 3 m/s 744 mmHg 94%
    23:00 +18°C° 0 mm 2 m/s 744 mmHg 94%

    27 Mai, Luni

    Timp Temperatura Precipitaţii Vânt Presiune Umiditate
    00:00 +18°C° 0 mm 2 m/s 744 mmHg 94%
    01:00 +18°C° 0 mm 1 m/s 744 mmHg 95%
    02:00 +17°C° 0 mm 2 m/s 744 mmHg 94%
    03:00 +16°C° 0 mm 2 m/s 744 mmHg 93%
    04:00 +14°C° 0 mm 3 m/s 745 mmHg 92%
    05:00 +14°C° 0 mm 4 m/s 745 mmHg 88%
    06:00 +14°C° 0 mm 4 m/s 746 mmHg 83%
    07:00 +13°C° 0 mm 5 m/s 746 mmHg 79%
    08:00 +13°C° 0 mm 5 m/s 747 mmHg 75%
    09:00 +13°C° 0 mm 4 m/s 747 mmHg 71%
    10:00 +13°C° 0 mm 3 m/s 748 mmHg 67%
    11:00 +14°C° 0 mm 3 m/s 748 mmHg 63%
    12:00 +16°C° 0 mm 3 m/s 748 mmHg 60%
    13:00 +17°C° 0 mm 4 m/s 748 mmHg 56%
    14:00 +17°C° 0 mm 3 m/s 747 mmHg 53%
    15:00 +17°C° 0 mm 3 m/s 747 mmHg 51%
    16:00 +17°C° 0 mm 2 m/s 747 mmHg 48%
    17:00 +17°C° 0 mm 2 m/s 747 mmHg 51%
    18:00 +16°C° 0 mm 2 m/s 747 mmHg 55%
    19:00 +15°C° 0 mm 1 m/s 747 mmHg 58%
    20:00 +14°C° 0 mm 1 m/s 747 mmHg 59%
    21:00 +12°C° 0 mm 1 m/s 747 mmHg 60%
    22:00 +11°C° 0 mm 1 m/s 747 mmHg 60%
    23:00 +11°C° 0 mm 1 m/s 747 mmHg 62%
    Arată mai mult